Flag for Canada Weather past 2 weeks in Rothesay, New Brunswick, Canada

Now
50 °F

Fog.


Feels Like: 47 °F
Forecast: 52 / 70 °F
Wind: 8 mph from Southwest

Location: Saint John

Current Time: Jun 30, 2015 at 1:33:26 AM

Latest Report: Jun 30, 2015 at 1:00 AM


Visibility: 0 mi

Pressure: 29.92 "Hg

Humidity: 100%

Dew point: 50 °F

Location of RothesayLocation

Historic Weather in Rothesay — Graph

°F

Rothesay temperature yesterday

Maximum temperature yesterday: 61 °F (at 1:00 PM)
Minimum temperature yesterday: 52 °F (at 12:00 AM)
Average temperature yesterday: 55 °F

Past Weeks' High & Low Weather Summary

 TemperatureHumidityPressure
High77 °F (Jun 24, 5:00 PM)100% (Jun 16, 5:00 AM)30.21 "Hg (Jun 16, 5:00 AM)
Low39 °F (Jun 20, 6:00 AM)31% (Jun 17, 5:00 PM)29.63 "Hg (Jun 22, 4:00 AM)
Average57 °F77%29.96 "Hg
* Reported Jun 14 11:00 PM — Jun 29 11:00 PM, Rothesay, Weather by CustomWeather, © 2015

Note: Actual official high and low records may vary slightly from our data, if they occured in-between our weather recording intervals... More about our weather records

Advertising

Rothesay weather history for previous 24 hours

 ConditionsComfort  
Time TempWeatherWind HumidityBarometerVisibility
11:00 PM
Mon, Jun 29
52 °FFog.12 mph100%29.90 "Hg1 mi
10:00 PM52 °FFog.10 mph94%29.89 "Hg2 mi
9:00 PM52 °FPartly sunny.10 mph94%29.87 "Hg15 mi
8:00 PM55 °FBroken clouds.8 mph88%29.86 "Hg15 mi
7:00 PM55 °FOvercast.12 mph88%29.84 "Hg15 mi
6:00 PM55 °FOvercast.16 mph88%29.83 "Hg15 mi
5:00 PM59 °FOvercast.14 mph82%29.82 "Hg15 mi
4:00 PM57 °FLow clouds.15 mph88%29.81 "Hg15 mi
3:00 PM61 °FPartly sunny.13 mph83%29.79 "Hg12 mi
2:00 PM61 °FMostly cloudy.13 mph88%29.77 "Hg10 mi
1:00 PM61 °FMostly cloudy.7 mph88%29.75 "Hg8 mi
12:46 PM59 °FMostly cloudy.6 mph94%29.75 "Hg8 mi
12:00 PM57 °FLow clouds.9 mph94%29.73 "Hg8 mi
11:00 AM55 °FLight rain. Fog.8 mph94%29.71 "Hg1 mi
10:00 AM57 °FFog.8 mph94%29.70 "Hg2 mi
9:00 AM55 °FLight rain. Fog.6 mph100%29.69 "Hg1 mi
8:00 AM55 °FLight rain. Fog.13 mph94%29.68 "Hg3 mi
7:00 AM54 °FLight rain. Fog.7 mph100%29.67 "Hg3 mi
6:00 AM54 °FLight rain. Fog.15 mph100%29.67 "Hg3 mi
5:00 AM54 °FLight rain. Low clouds.15 mph94%29.68 "Hg12 mi
4:00 AM54 °FLight rain. Fog.16 mph94%29.67 "Hg3 mi
3:00 AM52 °FLight rain. Fog.20 mph100%29.70 "Hg3 mi
2:00 AM52 °FLight rain. Fog.17 mph100%29.73 "Hg3 mi
1:00 AM52 °FLight rain. Fog.18 mph94%29.77 "Hg3 mi
Weather by CustomWeather, © 2015

See weather overviewHow to use our weather pages